Tracking 35331 objects as of 16-Sep-2026
HD Live streaming from Space Station
objects crossing your sky now

PEGASUS DEB


PEGASUS DEB is no longer on orbit


NORAD ID: 24337
Int'l Code: 1994-029NN
Launch date: May 19, 1994
Source: United States (US)
Launch site: AIR FORCE WESTERN TEST RANGE (AFWTR)
Decay date: 2001-06-11

Note: This is SATELLITE DEBRIS
Your satellite tracking list
Your tracking list is empty




NASA's NSSDC Master Catalog

Two Line Element Set (TLE):
1 24337U 94029NN  01162.68255632 +.14883522 -10396-5 +10562-1 0  9993
2 24337 081.9049 255.8669 0021080 293.2064 065.2620 16.15555442372988
Source of the keplerian elements: AFSPC